Regional Weather Roundup
Issued by NWS Newport/Morehead, NC

Current Version | Previous Version | Graphics & Text | Print | Product List | Glossary Off
Versions: 1 2 3 4 5 6 7 8 9 10 11 12 13 14 15 16 17 18 19 20 21 22 23 24 25 26 27 28 29 30 31 32 33 34 35 36 37 38 39 40 41 42 43 44 45 46 47 48 49 50
000 ASUS42 KMHX 021725 RWRMHX WEATHER ROUNDUP FOR EASTERN NORTH CAROLINA NATIONAL WEATHER SERVICE NEWPORT/MOREHEAD CITY NC 100 PM EDT SUN AUG 02 2015 NOTE: "FAIR" INDICATES FEW OR NO CLOUDS BELOW 12,000 FEET WITH NO SIGNIFICANT WEATHER AND/OR OBSTRUCTIONS TO VISIBILITY NCZ015>017-031-032-045>047-102-103-021800- NORTH COAST CITY SKY/WX TMP DP RH WIND PRES REMARKS EDENTON N/A 91 64 39 NW5 29.94S ELIZABETH CITY MOSUNNY 91 66 43 VRB5 29.93F KITTY HAWK SUNNY 94 66 39 SE5 29.92F MANTEO MOSUNNY 89 71 54 SE7 29.93F $$ NCZ045>047-081-094-103-104-021800- CENTRAL COAST CITY SKY/WX TMP DP RH WIND PRES REMARKS FRISCO SUNNY 87 74 64 S7 29.94F SWANQUARTER N/A 90 N/A N/A S5 29.91S $$ NCZ095-097-098-100-101-021800- SOUTHERN COAST CITY SKY/WX TMP DP RH WIND PRES REMARKS BEAUFORT SUNNY 84 78 82 S9 29.94F CEDAR ISLAND N/A 88 N/A N/A NE5 29.97S JACKSONVILLE CLOUDY 89 71 55 E7 29.93F PINEY ISLAND SUNNY N/A N/A N/A E7 29.94F WILMINGTON PTSUNNY 91 73 55 VRB3 29.94F $$ NCZ011>013-027>030-043-044-078>080-089-090>093-098-021800- COASTAL PLAIN CITY SKY/WX TMP DP RH WIND PRES REMARKS AHOSKIE MOSUNNY 85 66 53 N3 29.95F CLINTON SUNNY 92 63 38 E3 29.95F ELIZABETHTOWN SUNNY 91 60 34 SE5 29.94F GOLDSBORO SUNNY 91 63 39 VRB5 29.93F GREENVILLE SUNNY 91 63 38 CALM 29.96F HAVELOCK PTSUNNY 89 69 51 CALM 29.94F KENANSVILLE SUNNY 89 58 35 CALM 29.96F KINSTON SUNNY 90 61 37 N5 29.95F NEW BERN SUNNY 93 65 39 SW5 29.94F RICHLANDS SUNNY 91 66 43 NW8 29.93F ROCKY MOUNT MOSUNNY 90 57 32 MISG 29.96F WASHINGTON SUNNY 89 68 49 NW5 29.94F WHITEVILLE SUNNY 90 68 48 NE3 29.94F $$ AMZ130-135-150-152-154-156-158-170-250-252-270-ANZ085-086-088-633-658-670-021800- MARINE OBSERVATIONS STATION/POSITION TIME TEMP WIND PRES WAVE SWELL AIR SEA DIR/SP/G HT/PER HT/PER (UTC) (F) (DEG/KT/KT) (MB) (FT/S) (FT/S) CHESAPEAKE LIGHT 1700 79 10/ 9/ 10 1014.5 64 E VA BEACH 1650 82 83 150/ 8/ 10 1013.5 3/ 7 3/ 7 DUCK 1700 84 78 120/ 5/ 5 1012.9 2 E DUCK 1611 81 N/A 2/11 2/11 OREGON INLET 1700 85 82 80/ 6/ 8 1013.6 13E OREGON INLT 1700 83 N/A 3/11 2/11 HATTERAS CG 1700 85 81 300/ 1/ 4 1013.6 DIAMOND BUOY 1650 83 86 170/ 10/ 12 1014.0 3/ 8 3/ 8 CAPE LOOKOUT 1700 82 160/ 7/ 9 1013.8 BEAUFORT LAB 1700 82 82 200/ 8/ 9 1013.2 30 SE NEW RVR IN NOT AVBL 27 SE WRIGHTSVLE 1700 79 83 210/ 8/ 10 N/A 5 SE WRIGHTSVLE 1608 82 83 160/ 4/ 8 1014.6 225 S CAPE HAT 1650 83 81 230/ 14/ 16 1017.0 7/ 8 5/ 8 41 SE CHARLESTON 1650 79 83 120/ 6/ 10 1014.3 4/ 7 3/ 7 $$

USA.gov is the U.S. government's official web portal to all federal, state and local government web resources and services.